M0UPS-13 Weather Reports


time (UTC)temp
C
wind
direction
speed
KPH
gust
KPH
rain 1hr
cm
rain 24hr
cm
rain mn
cm
humidity
%
barometer
mb
20260507090002 12 298 1.6 4.8 0.00 0.00 0.00 67 1016.6
20260507085502 12 290 0.0 4.8 0.00 0.00 0.00 67 1016.7
20260507085002 12 228 0.0 0.0 0.00 0.00 0.00 64 1016.7
20260507084502 12 228 0.0 0.0 0.00 0.00 0.00 63 1016.8
20260507084002 12 240 0.0 3.2 0.00 0.00 0.00 63 1016.8
20260507083502 12 240 0.0 3.2 0.00 0.00 0.00 62 1016.7
20260507083002 12 233 0.0 0.0 0.00 0.00 0.00 65 1016.6
20260507082501 12 235 1.6 3.2 0.00 0.00 0.00 64 1016.7
20260507082001 12 276 1.6 3.2 0.00 0.00 0.00 65 1016.7
20260507081502 12 230 0.0 0.0 0.00 0.00 0.00 67 1016.6
20260507081002 13 246 3.2 4.8 0.00 0.00 0.00 64 1016.5
20260507080502 13 299 1.6 6.4 0.00 0.00 0.00 62 1016.4
20260507080002 14 82 4.8 8.0 0.00 0.00 0.00 60 1016.6
20260507075502 14 152 6.4 6.4 0.00 0.00 0.00 62 1016.4
20260507075002 13 224 0.0 3.2 0.00 0.00 0.00 64 1016.6
20260507074502 12 218 0.0 3.2 0.00 0.00 0.00 69 1016.5
20260507074002 12 260 1.6 3.2 0.00 0.00 0.00 72 1016.6
20260507073503 12 297 1.6 4.8 0.00 0.00 0.00 72 1016.6
20260507073002 12 33 4.8 4.8 0.00 0.00 0.00 72 1016.7
20260507072502 12 245 0.0 4.8 0.00 0.00 0.00 71 1016.7
20260507072002 12 286 1.6 3.2 0.00 0.00 0.00 71 1016.6
20260507071502 12 239 3.2 4.8 0.00 0.00 0.00 69 1016.7
20260507071002 13 224 1.6 3.2 0.00 0.00 0.00 70 1016.6
20260507070502 12 316 1.6 3.2 0.00 0.00 0.00 72 1016.5
20260507070003 12 268 1.6 4.8 0.00 0.00 0.00 73 1016.7
20260507065502 12 216 1.6 3.2 0.00 0.00 0.00 73 1016.5
20260507065002 12 320 1.6 6.4 0.00 0.00 0.00 73 1016.7
20260507064502 11 325 3.2 6.4 0.00 0.00 0.00 73 1016.5
20260507064002 11 306 3.2 4.8 0.00 0.00 0.00 74 1016.5
20260507063502 11 328 1.6 4.8 0.00 0.00 0.00 75 1016.4
20260507063002 11 305 0.0 3.2 0.00 0.00 0.00 72 1016.5
20260507062502 11 305 0.0 0.0 0.00 0.00 0.00 75 1016.5
20260507062002 11 305 0.0 0.0 0.00 0.00 0.00 75 1016.3
20260507061502 11 305 0.0 0.0 0.00 0.00 0.00 75 1016.3
20260507061002 10 305 0.0 0.0 0.00 0.00 0.00 79 1016.3
20260507060502 10 305 0.0 0.0 0.00 0.00 0.00 81 1016.3
20260507060002 8 305 0.0 0.0 0.00 0.00 0.00 85 1016.1
20260507055502 8 305 0.0 0.0 0.00 0.00 0.00 89 1016.2
20260507055002 7 305 0.0 0.0 0.00 0.00 0.00 88 1016.2
20260507054502 7 305 0.0 0.0 0.00 0.00 0.00 89 1016.3
20260507054002 7 305 0.0 0.0 0.00 0.00 0.00 90 1016.3
20260507053502 7 305 0.0 0.0 0.00 0.00 0.00 90 1016.1
20260507053003 7 305 0.0 0.0 0.00 0.00 0.00 90 1016.0
20260507052502 7 305 0.0 0.0 0.00 0.00 0.00 89 1016.1
20260507052003 7 305 0.0 0.0 0.00 0.00 0.00 89 1016.1
20260507051502 7 305 0.0 0.0 0.00 0.00 0.00 89 1016.1
20260507051002 7 305 0.0 0.0 0.00 0.00 0.00 90 1016.0
20260507050502 7 305 0.0 0.0 0.00 0.00 0.00 90 1015.9
20260507050002 7 305 0.0 0.0 0.00 0.00 0.00 90 1016.0
20260507045502 7 305 1.6 3.2 0.00 0.00 0.00 91 1016.0
20260507045002 7 305 0.0 0.0 0.00 0.00 0.00 91 1016.0
20260507044502 7 305 0.0 0.0 0.00 0.00 0.00 91 1016.0
20260507044002 7 305 0.0 0.0 0.00 0.00 0.00 91 1015.9
20260507043502 7 305 0.0 0.0 0.00 0.00 0.00 91 1015.9
20260507043002 7 305 0.0 0.0 0.00 0.00 0.00 91 1015.9
20260507042502 7 305 0.0 0.0 0.00 0.00 0.00 91 1015.9
20260507042002 7 305 0.0 0.0 0.00 0.00 0.00 91 1015.9
20260507041502 7 305 0.0 0.0 0.00 0.00 0.00 91 1016.0
20260507041002 7 305 0.0 0.0 0.00 0.00 0.00 91 1015.9
20260507040502 7 305 0.0 0.0 0.00 0.00 0.00 91 1015.9
20260507040002 7 305 0.0 0.0 0.00 0.00 0.00 91 1015.9
20260507035502 7 305 0.0 0.0 0.00 0.00 0.00 91 1015.9
20260507035002 7 305 0.0 0.0 0.00 0.00 0.00 91 1015.9
20260507034502 7 305 0.0 0.0 0.00 0.00 0.00 91 1015.9
20260507034002 7 305 0.0 0.0 0.00 0.00 0.00 91 1015.9
20260507033502 7 305 0.0 0.0 0.00 0.00 0.00 90 1015.9
20260507033002 7 305 0.0 0.0 0.00 0.00 0.00 90 1015.8
20260507032502 7 305 0.0 0.0 0.00 0.00 0.00 90 1015.8
20260507032002 7 305 0.0 0.0 0.00 0.00 0.00 90 1015.7
20260507031502 7 305 0.0 0.0 0.00 0.00 0.00 90 1015.7
20260507031002 7 305 0.0 0.0 0.00 0.00 0.00 89 1015.9
20260507030502 7 305 0.0 0.0 0.00 0.00 0.00 89 1015.7
20260507030002 7 305 0.0 0.0 0.00 0.00 0.00 88 1015.8
20260507025502 7 305 0.0 0.0 0.00 0.00 0.00 88 1015.8
20260507025002 7 305 0.0 0.0 0.00 0.00 0.00 88 1015.8
20260507024502 8 305 0.0 0.0 0.00 0.00 0.00 88 1015.7
20260507024002 8 305 0.0 0.0 0.00 0.00 0.00 87 1015.8
20260507023502 8 305 0.0 0.0 0.00 0.00 0.00 87 1015.9
20260507023002 8 305 0.0 0.0 0.00 0.00 0.00 87 1015.9
20260507022502 8 305 0.0 0.0 0.00 0.00 0.00 87 1015.7
20260507022110 8 305 0.0 0.0 0.00 0.00 0.00 86 1015.6
20260507021502 8 305 0.0 0.0 0.00 0.00 0.00 86 1015.6
20260507021002 8 305 0.0 0.0 0.00 0.00 0.00 86 1015.5
20260507020503 8 305 0.0 0.0 0.00 0.00 0.00 86 1015.5
20260507020002 8 305 0.0 0.0 0.00 0.00 0.00 86 1015.5
20260507015502 8 305 0.0 0.0 0.00 0.00 0.00 86 1015.6
20260507015002 8 305 0.0 0.0 0.00 0.00 0.00 86 1015.6
20260507014502 8 305 0.0 0.0 0.00 0.00 0.00 87 1015.6
20260507014002 8 305 0.0 0.0 0.00 0.00 0.00 87 1015.8
20260507013502 8 305 0.0 0.0 0.00 0.00 0.00 87 1015.6
20260507013002 8 305 0.0 0.0 0.00 0.00 0.00 87 1015.4
20260507012502 8 305 0.0 0.0 0.00 0.00 0.00 87 1015.7
20260507012002 8 305 0.0 0.0 0.00 0.00 0.00 87 1015.7
20260507011502 8 305 0.0 0.0 0.00 0.00 0.00 86 1015.5
20260507011002 8 305 0.0 0.0 0.00 0.00 0.00 85 1015.6
20260507010502 8 305 0.0 0.0 0.00 0.00 0.00 85 1015.7
20260507010002 8 305 0.0 0.0 0.00 0.00 0.00 84 1015.5
20260507005502 8 305 0.0 0.0 0.00 0.00 0.00 84 1015.4
20260507005002 8 305 0.0 0.0 0.00 0.00 0.00 84 1015.5
20260507004502 8 305 0.0 0.0 0.00 0.00 0.00 84 1015.5
20260507004002 8 305 0.0 0.0 0.00 0.00 0.00 83 1015.6
20260507003502 8 305 0.0 0.0 0.00 0.00 0.00 82 1015.6
20260507003002 8 305 0.0 0.0 0.00 0.00 0.00 82 1015.4
20260507002502 9 305 0.0 0.0 0.00 0.00 0.00 81 1015.6
20260507002002 9 305 0.0 0.0 0.00 0.00 0.00 81 1015.4
20260507001503 9 306 0.0 0.0 0.00 0.00 0.00 81 1015.4
20260507001002 9 306 0.0 0.0 0.00 0.00 0.00 80 1015.7
20260507000502 9 305 0.0 0.0 0.00 0.00 0.00 80 1015.7
20260507000003 9 305 0.0 0.0 0.00 0.00 0.00 79 1015.7
20260506235502 9 304 0.0 0.0 0.00 0.00 0.00 79 1015.5
20260506235002 10 305 0.0 0.0 0.00 0.00 0.00 78 1015.4
20260506234502 10 305 0.0 0.0 0.00 0.00 0.00 78 1015.5
20260506234002 10 305 0.0 0.0 0.00 0.00 0.00 77 1015.5
20260506233502 10 305 0.0 0.0 0.00 0.00 0.00 77 1015.3
20260506233002 10 305 0.0 0.0 0.00 0.00 0.00 77 1015.4
20260506232502 10 304 0.0 3.2 0.00 0.00 0.00 76 1015.5
20260506232003 10 294 0.0 3.2 0.00 0.00 0.00 76 1015.3
20260506231502 10 292 0.0 3.2 0.00 0.00 0.00 76 1015.3
20260506231002 10 287 0.0 0.0 0.00 0.00 0.00 76 1015.5
20260506230502 10 295 0.0 4.8 0.00 0.00 0.00 76 1015.5
20260506230002 10 241 0.0 0.0 0.00 0.00 0.00 75 1015.4
20260506225502 10 241 0.0 0.0 0.00 0.00 0.00 75 1015.5
20260506225002 10 241 0.0 0.0 0.00 0.00 0.00 74 1015.4
20260506224502 10 241 0.0 0.0 0.00 0.00 0.00 74 1015.4
20260506224002 10 241 0.0 0.0 0.00 0.00 0.00 73 1015.4
20260506223502 10 241 0.0 0.0 0.00 0.00 0.00 72 1015.4
20260506223002 10 241 0.0 0.0 0.00 0.00 0.00 72 1015.2
20260506222502 10 241 0.0 0.0 0.00 0.00 0.00 71 1015.3
20260506222002 10 241 0.0 0.0 0.00 0.00 0.00 71 1015.2
20260506221502 10 240 0.0 0.0 0.00 0.00 0.00 70 1015.3
20260506221002 10 240 0.0 0.0 0.00 0.00 0.00 69 1015.3
20260506220502 10 240 0.0 0.0 0.00 0.00 0.00 69 1015.1
20260506220002 10 240 0.0 0.0 0.00 0.00 0.00 68 1015.1
20260506215502 10 240 0.0 0.0 0.00 0.00 0.00 68 1015.2
20260506215002 10 240 0.0 0.0 0.00 0.00 0.00 68 1015.2
20260506214002 10 342 3.2 4.8 0.00 0.00 0.00 66 1015.2
20260506213503 11 246 0.0 3.2 0.00 0.00 0.00 66 1015.2
20260506213002 11 25 4.8 6.4 0.00 0.00 0.00 65 1015.2
20260506212502 11 93 3.2 4.8 0.00 0.00 0.00 66 1015.3
20260506212002 11 247 0.0 0.0 0.00 0.00 0.00 66 1015.1
20260506211502 11 247 1.6 3.2 0.00 0.00 0.00 65 1015.1
20260506211002 11 230 0.0 0.0 0.00 0.00 0.00 64 1015.0
20260506210502 11 300 0.0 4.8 0.00 0.00 0.00 64 1015.1
20260506210002 11 302 0.0 4.8 0.00 0.00 0.00 63 1014.9
20260506205502 11 338 1.6 4.8 0.00 0.00 0.00 63 1014.9
20260506205002 11 299 0.0 4.8 0.00 0.00 0.00 63 1015.1
20260506204502 11 283 1.6 4.8 0.00 0.00 0.00 63 1015.0
20260506204002 11 68 4.8 8.0 0.00 0.00 0.00 63 1014.7
20260506203502 11 17 3.2 4.8 0.00 0.00 0.00 63 1015.1
20260506203002 11 261 0.0 3.2 0.00 0.00 0.00 63 1015.0
20260506202502 11 284 0.0 0.0 0.00 0.00 0.00 62 1014.7
20260506202002 11 267 1.6 3.2 0.00 0.00 0.00 62 1014.9
20260506201502 11 266 0.0 0.0 0.00 0.00 0.00 61 1014.7
20260506201002 11 216 1.6 3.2 0.00 0.00 0.00 60 1014.5
20260506200503 11 250 0.0 0.0 0.00 0.00 0.00 60 1014.6
20260506200002 11 241 1.6 3.2 0.00 0.00 0.00 60 1014.3
20260506195502 11 251 1.6 4.8 0.00 0.00 0.00 60 1014.4
20260506195002 11 231 0.0 0.0 0.00 0.00 0.00 59 1014.4
20260506194502 11 234 1.6 3.2 0.00 0.00 0.00 60 1014.4
20260506194002 11 275 0.0 3.2 0.00 0.00 0.00 60 1014.2
20260506193502 11 248 0.0 3.2 0.00 0.00 0.00 60 1014.1
20260506193004 11 248 0.0 4.8 0.00 0.00 0.00 60 1014.1
20260506192502 11 224 0.0 4.8 0.00 0.00 0.00 60 1013.9
20260506192002 12 226 1.6 4.8 0.00 0.00 0.00 60 1014.1
20260506191502 12 282 0.0 4.8 0.00 0.00 0.00 60 1014.0
20260506191004 12 291 0.0 3.2 0.00 0.00 0.00 59 1014.0
20260506190502 12 311 1.6 3.2 0.00 0.00 0.00 59 1014.0
20260506190002 12 282 0.0 0.0 0.00 0.00 0.00 59 1013.9
20260506185502 12 251 1.6 4.8 0.00 0.00 0.00 58 1013.9
20260506185002 12 209 0.0 3.2 0.00 0.00 0.00 57 1013.9
20260506184503 12 287 0.0 3.2 0.00 0.00 0.00 56 1013.9
20260506184002 12 211 1.6 3.2 0.00 0.00 0.00 54 1013.8
20260506183502 12 277 0.0 3.2 0.00 0.00 0.00 54 1013.8
20260506183002 12 303 1.6 4.8 0.00 0.00 0.00 53 1013.8
20260506182502 12 316 3.2 6.4 0.00 0.00 0.00 52 1013.7
20260506182006 12 275 1.6 6.4 0.00 0.00 0.00 52 1013.7
20260506181502 12 21 4.8 6.4 0.00 0.00 0.00 52 1013.6
20260506181003 12 280 1.6 8.0 0.00 0.00 0.00 52 1013.5
20260506180502 12 277 0.0 3.2 0.00 0.00 0.00 52 1013.6
20260506180003 12 347 1.6 4.8 0.00 0.00 0.00 52 1013.5
20260506175502 12 302 3.2 8.0 0.00 0.00 0.00 54 1013.4
20260506175002 12 201 1.6 3.2 0.00 0.00 0.00 54 1013.5
20260506174502 12 241 1.6 3.2 0.00 0.00 0.00 54 1013.4
20260506174002 12 286 0.0 0.0 0.00 0.00 0.00 53 1013.2
20260506173502 12 279 1.6 4.8 0.00 0.00 0.00 53 1013.3
20260506173002 13 240 0.0 3.2 0.00 0.00 0.00 53 1013.3
20260506172502 13 279 0.0 4.8 0.00 0.00 0.00 52 1013.1
20260506172002 13 262 0.0 3.2 0.00 0.00 0.00 52 1013.1
20260506171502 13 289 0.0 4.8 0.00 0.00 0.00 53 1013.3
20260506171002 13 243 0.0 3.2 0.00 0.00 0.00 53 1013.2
20260506170502 13 315 1.6 4.8 0.00 0.00 0.00 52 1013.1
20260506170002 13 344 6.4 9.7 0.00 0.00 0.00 51 1013.2
20260506165502 13 245 0.0 4.8 0.00 0.00 0.00 53 1013.1
20260506165002 14 276 1.6 4.8 0.00 0.00 0.00 53 1013.1
20260506164502 15 220 1.6 4.8 0.00 0.00 0.00 51 1013.1
20260506164002 15 113 1.6 4.8 0.00 0.00 0.00 50 1013.2
20260506163502 15 296 0.0 9.7 0.00 0.00 0.00 50 1013.1
20260506163002 15 275 0.0 3.2 0.00 0.00 0.00 53 1013.3
20260506162502 15 231 1.6 3.2 0.00 0.00 0.00 51 1013.2
20260506162002 14 290 1.6 3.2 0.00 0.00 0.00 52 1013.3
20260506161502 14 223 3.2 4.8 0.00 0.00 0.00 52 1013.2
20260506161002 13 281 0.0 4.8 0.00 0.00 0.00 54 1013.2
20260506160502 13 4 1.6 6.4 0.00 0.00 0.00 52 1013.3
20260506160002 13 281 0.0 3.2 0.00 0.00 0.00 56 1013.2
20260506155503 13 246 1.6 3.2 0.00 0.00 0.00 54 1013.4
20260506155002 13 266 1.6 3.2 0.00 0.00 0.00 55 1013.3
20260506154502 13 45 4.8 8.0 0.00 0.00 0.00 53 1013.5
20260506154003 13 344 3.2 9.7 0.00 0.00 0.00 53 1013.5
20260506153503 13 333 1.6 4.8 0.00 0.00 0.00 55 1013.5
20260506153002 13 66 3.2 6.4 0.00 0.00 0.00 55 1013.5
20260506152502 13 333 1.6 4.8 0.00 0.00 0.00 56 1013.4
20260506152002 13 83 4.8 4.8 0.00 0.00 0.00 56 1013.4
20260506151502 13 278 1.6 8.0 0.00 0.00 0.00 57 1013.3
20260506151002 13 290 0.0 4.8 0.00 0.00 0.00 58 1013.5
20260506150502 13 248 3.2 4.8 0.00 0.00 0.00 57 1013.5
20260506150002 12 256 0.0 3.2 0.00 0.00 0.00 59 1013.5
20260506145502 13 98 6.4 11.3 0.00 0.00 0.00 56 1013.4
20260506145002 12 279 0.0 4.8 0.00 0.00 0.00 59 1013.4
20260506144502 12 147 1.6 4.8 0.00 0.00 0.00 57 1013.6
20260506144002 12 174 4.8 11.3 0.00 0.00 0.00 56 1013.5
20260506143502 13 115 3.2 9.7 0.00 0.00 0.00 57 1013.6
20260506143002 13 21 1.6 8.0 0.00 0.00 0.00 56 1013.3
20260506142502 13 280 1.6 3.2 0.00 0.00 0.00 58 1013.6
20260506142002 13 4 3.2 8.0 0.00 0.00 0.00 54 1013.4
20260506141502 14 38 4.8 9.7 0.00 0.00 0.00 53 1013.3
20260506141002 15 230 1.6 4.8 0.00 0.00 0.00 52 1013.4
20260506140502 15 201 1.6 6.4 0.00 0.00 0.00 52 1013.2
20260506140002 15 120 4.8 8.0 0.00 0.00 0.00 50 1013.4
20260506135502 15 93 3.2 8.0 0.00 0.00 0.00 51 1013.6
20260506135002 15 267 1.6 4.8 0.00 0.00 0.00 52 1013.4
20260506134502 15 189 1.6 9.7 0.00 0.00 0.00 51 1013.5
20260506134002 15 120 4.8 9.7 0.00 0.00 0.00 51 1013.3
20260506133502 14 25 3.2 6.4 0.00 0.00 0.00 55 1013.4
20260506133002 13 240 1.6 6.4 0.00 0.00 0.00 55 1013.6
20260506132502 13 270 0.0 3.2 0.00 0.00 0.00 55 1013.5
20260506132002 13 271 1.6 9.7 0.00 0.00 0.00 56 1013.3
20260506131502 13 277 1.6 11.3 0.00 0.00 0.00 56 1013.5
20260506131004 14 228 3.2 4.8 0.00 0.00 0.00 55 1013.4
20260506130502 14 271 3.2 6.4 0.00 0.00 0.00 53 1013.4
20260506130002 15 321 4.8 8.0 0.00 0.00 0.00 50 1013.2
20260506125502 15 287 1.6 4.8 0.00 0.00 0.00 47 1013.3
20260506125002 16 249 1.6 8.0 0.00 0.00 0.00 47 1013.4
20260506124502 17 279 3.2 6.4 0.00 0.00 0.00 47 1013.2
20260506124002 15 298 4.8 6.4 0.00 0.00 0.00 49 1013.3
20260506123503 15 240 4.8 4.8 0.00 0.00 0.00 51 1013.4
20260506123002 16 251 4.8 6.4 0.00 0.00 0.00 47 1013.3
20260506122502 15 266 1.6 16.1 0.00 0.00 0.00 49 1013.3
20260506122002 16 243 3.2 4.8 0.00 0.00 0.00 48 1013.3
20260506121502 15 200 1.6 6.4 0.00 0.00 0.00 51 1013.6
20260506121002 16 253 3.2 6.4 0.00 0.00 0.00 47 1013.4
20260506120502 16 346 8.0 11.3 0.00 0.00 0.00 48 1013.5
20260506120002 15 234 1.6 3.2 0.00 0.00 0.00 51 1013.4
20260506115503 15 209 1.6 8.0 0.00 0.00 0.00 50 1013.5
20260506115002 14 320 1.6 3.2 0.00 0.00 0.00 54 1013.4
20260506114502 15 305 6.4 14.5 0.00 0.00 0.00 50 1013.3
20260506114002 15 314 4.8 8.0 0.00 0.00 0.00 48 1013.4
20260506113502 13 253 1.6 4.8 0.00 0.00 0.00 56 1013.2
20260506113002 14 263 3.2 4.8 0.00 0.00 0.00 52 1013.4
20260506112502 15 290 0.0 6.4 0.00 0.00 0.00 50 1013.5
20260506112002 15 286 1.6 6.4 0.00 0.00 0.00 48 1013.4
20260506111502 15 183 1.6 4.8 0.00 0.00 0.00 47 1013.4
20260506111002 14 292 4.8 8.0 0.00 0.00 0.00 51 1013.5
20260506110502 13 279 1.6 11.3 0.00 0.00 0.00 52 1013.5
20260506110002 15 313 4.8 8.0 0.00 0.00 0.00 49 1013.5
20260506105502 14 228 1.6 6.4 0.00 0.00 0.00 51 1013.4
20260506105002 15 214 3.2 17.7 0.00 0.00 0.00 49 1013.5
20260506104502 14 290 4.8 8.0 0.00 0.00 0.00 49 1013.6
20260506104002 13 268 1.6 3.2 0.00 0.00 0.00 56 1013.4
20260506103502 13 300 3.2 11.3 0.00 0.00 0.00 52 1013.5
20260506103002 14 302 4.8 14.5 0.00 0.00 0.00 51 1013.3
20260506102502 15 67 4.8 11.3 0.00 0.00 0.00 47 1013.6
20260506102003 14 252 0.0 4.8 0.00 0.00 0.00 53 1013.5
20260506101503 13 75 3.2 8.0 0.00 0.00 0.00 50 1013.7
20260506101002 12 81 1.6 6.4 0.00 0.00 0.00 54 1013.6
20260506100502 13 14 1.6 9.7 0.00 0.00 0.00 52 1013.7
20260506100002 14 268 1.6 11.3 0.00 0.00 0.00 51 1013.6
20260506095502 14 260 1.6 9.7 0.00 0.00 0.00 51 1013.6
20260506095002 14 122 6.4 11.3 0.00 0.00 0.00 49 1013.5
20260506094502 14 279 1.6 14.5 0.00 0.00 0.00 49 1013.6
20260506094002 14 254 4.8 6.4 0.00 0.00 0.00 49 1013.7
20260506093503 14 257 1.6 3.2 0.00 0.00 0.00 50 1013.7
20260506093002 14 271 0.0 6.4 0.00 0.00 0.00 51 1013.6
20260506092502 13 253 1.6 4.8 0.00 0.00 0.00 53 1013.7
20260506092002 12 169 3.2 4.8 0.00 0.00 0.00 55 1013.4
20260506091502 14 295 4.8 11.3 0.00 0.00 0.00 50 1013.5
20260506091002 14 250 3.2 4.8 0.00 0.00 0.00 52 1013.6
20260506090502 13 267 0.0 8.0 0.00 0.00 0.00 56 1013.4